Date,TemperatureHighF,TemperatureAvgF,TemperatureLowF,DewpointHighF,DewpointAvgF,DewpointLowF,HumidityHigh,HumidityAvg,HumidityLow,PressureMaxIn,PressureMinIn,WindSpeedMaxMPH,WindSpeedAvgMPH,GustSpeedMaxMPH,PrecipitationSumIn
2013-11-1,69.4,62.7,49.9,64.7,58.6,48.8,97,87,67,29.81,29.58,6,1,29,0.28
2013-11-2,67.8,53.7,44.9,54.5,46.8,41.4,100,80,51,29.83,29.66,2,0,9,0.00
2013-11-3,50.3,43.3,30.5,43.2,33.4,21.9,94,69,46,30.50,29.83,5,2,17,0.00
2013-11-4,44.4,31.3,23.8,26.3,22.7,19.9,90,73,39,30.69,30.50,3,0,9,0.00
2013-11-5,56.3,42.0,27.3,43.4,35.5,25.2,93,79,59,30.67,30.50,4,0,10,0.00
2013-11-6,65.4,52.5,40.5,52.5,46.7,38.6,96,82,60,30.52,30.09,4,1,8,0.00
2013-11-7,60.5,51.7,37.9,57.6,48.7,35.0,98,90,75,30.09,29.80,5,1,10,0.08
2013-11-8,48.7,41.3,30.9,37.7,30.7,27.4,87,66,50,30.28,30.00,5,1,9,0.00
2013-11-9,49.7,38.7,25.3,34.4,29.8,23.8,96,73,46,30.35,30.02,3,1,10,0.00
2013-11-10,57.1,44.8,28.7,40.2,32.8,27.4,97,66,44,30.13,29.89,7,2,12,0.00
2013-11-11,53.1,46.3,33.0,37.2,32.6,27.1,82,59,49,30.26,30.00,4,1,14,0.00
2013-11-12,49.9,36.2,24.3,38.2,25.5,17.7,86,65,51,30.36,29.97,7,2,13,0.00
2013-11-13,38.9,30.8,25.8,20.6,17.4,14.0,77,58,42,30.44,30.34,6,1,12,0.00
2013-11-14,52.8,38.2,26.7,23.8,21.5,19.6,78,54,28,30.34,30.22,5,1,10,0.00
2013-11-15,57.7,37.7,24.8,36.5,28.2,21.5,91,72,34,30.29,30.19,2,0,3,0.00
2013-11-16,59.0,46.8,34.4,47.2,42.5,30.2,98,86,63,30.37,30.28,3,0,5,0.04
2013-11-17,65.2,56.2,47.6,59.6,53.4,46.2,98,91,80,30.29,29.79,5,1,8,0.00
2013-11-18,64.7,58.4,48.5,61.8,43.2,29.4,97,61,35,29.86,29.65,8,3,14,0.24
2013-11-19,48.5,41.7,30.2,30.5,26.8,22.9,74,55,49,30.40,29.86,8,3,14,0.00
2013-11-20,45.1,33.0,22.9,24.9,20.1,11.5,81,61,26,30.64,30.39,3,0,5,0.00
2013-11-21,51.9,37.8,20.3,41.2,30.3,16.8,89,75,60,30.64,30.42,4,0,9,0.00
2013-11-22,56.9,50.1,44.9,50.4,46.6,40.4,97,88,78,30.42,29.96,3,0,5,0.03
2013-11-23,52.3,40.8,28.9,48.6,28.7,14.7,89,62,48,30.11,29.97,8,3,12,0.01
2013-11-24,28.9,24.0,20.5,14.1,5.9,4.2,56,45,39,30.46,30.11,11,4,19,0.00
2013-11-25,33.5,26.4,17.6,18.6,14.3,7.5,81,61,48,30.55,30.37,3,1,7,0.00
2013-11-26,41.3,33.6,30.6,40.8,27.5,18.6,98,79,61,30.38,29.71,3,0,4,0.79
2013-11-27,60.4,42.4,31.0,60.4,39.8,22.5,100,91,64,29.86,29.42,9,2,17,2.18
2013-11-28,34.4,29.9,27.0,22.7,18.2,15.1,78,62,47,30.51,29.86,8,3,13,0.00
2013-11-29,38.5,28.8,20.4,26.0,21.2,17.4,93,74,54,30.77,30.50,4,0,7,0.00
2013-11-30,36.7,27.2,15.0,28.5,21.7,13.2,93,80,65,30.78,30.41,3,0,7,0.00